This is the latest recevied weather packets stored in our database for station/object K0SNA. If no packets are shown the sender has not sent any weather packets the latest 10 day(s).
| Time | Temp. | Humidity | Pressure | Rain* | Wind** | Luminosity | Snow |
|---|---|---|---|---|---|---|---|
| 1777864239 | 12.78° C | 47% | 1003.9 hPa | 0 mm | - | 0 W/m² | - |
| 1777863937 | 12.78° C | 47% | 1003.8 hPa | 0 mm | - | 0 W/m² | - |
| 1777863632 | 13.33° C | 46% | 1004.1 hPa | 0 mm | - | 0 W/m² | - |
| 1777863330 | 13.89° C | 45% | 1003.9 hPa | 0 mm | - | 0 W/m² | - |
| 1777863026 | 13.89° C | 43% | 1004 hPa | 0 mm | - | 0 W/m² | - |
| 1777862724 | 13.89° C | 43% | 1003.9 hPa | 0 mm | - | 0 W/m² | - |
| 1777862420 | 13.89° C | 42% | 1003.9 hPa | 0 mm | - | 0 W/m² | - |
| 1777862117 | 14.44° C | 42% | 1004 hPa | 0 mm | - | 0 W/m² | - |
| 1777861813 | 14.44° C | 42% | 1004.2 hPa | 0 mm | - | 0 W/m² | - |
| 1777861509 | 15° C | 40% | 1004.1 hPa | 0 mm | - | 0 W/m² | - |
| 1777861206 | 15° C | 40% | 1004.2 hPa | 0 mm | - | 0 W/m² | - |
| 1777860903 | 15.56° C | 40% | 1004.1 hPa | 0 mm | - | 0 W/m² | - |
| 1777860600 | 16.11° C | 37% | 1004.4 hPa | 0 mm | - | 0 W/m² | - |
| 1777860296 | 16.67° C | 35% | 1004.2 hPa | 0 mm | - | 0 W/m² | - |
| 1777859993 | 17.22° C | 33% | 1004.2 hPa | 0 mm | - | 0 W/m² | - |
| 1777859689 | 17.78° C | 32% | 1004 hPa | 0 mm | - | 0 W/m² | - |
| 1777859385 | 17.78° C | 32% | 1004.1 hPa | 0 mm | - | 0 W/m² | - |
| 1777859082 | 17.78° C | 31% | 1004.1 hPa | 0 mm | - | 0 W/m² | - |
| 1777858778 | 17.78° C | 31% | 1004.3 hPa | 0 mm | - | 0 W/m² | - |
| 1777858477 | 18.33° C | 30% | 1004.3 hPa | 0 mm | - | 0 W/m² | - |
| 1777858173 | 18.33° C | 30% | 1004.3 hPa | 0 mm | - | 1 W/m² | - |
| 1777857871 | 18.89° C | 29% | 1004.4 hPa | 0 mm | - | 1 W/m² | - |
| 1777857569 | 18.89° C | 29% | 1004.4 hPa | 0 mm | - | 2 W/m² | - |
| 1777857265 | 18.89° C | 28% | 1004.5 hPa | 0 mm | - | 4 W/m² | - |
| 1777856961 | 19.44° C | 29% | 1004.4 hPa | 0 mm | - | 8 W/m² | - |
* Rain latest hour (hover to see other rain measurements)
** Current wind speed in m/s (hover to see current wind gust speed)